Flag for Mexico Weather past 2 weeks in Mexicali, Baja California, Mexico

Now
59 °F

Clear.


Feels Like: 60 °F
Forecast: 49 / 78 °F
Wind: 3 mph from Northwest

Location: Imperial County Airport

Current Time: Dec 21, 2014 at 6:53:07 PM

Latest Report: Dec 21, 2014 at 5:53 PM


Visibility: 10 mi

Pressure: 30.04 "Hg

Humidity: 64%

Dew point: 47 °F

Location of MexicaliLocation

Historic Weather in Mexicali — Graph

°F

Mexicali temperature yesterday

Maximum temperature yesterday: 65 °F (at 12:53 PM)
Minimum temperature yesterday: 43 °F (at 5:53 AM)
Average temperature yesterday: 53 °F

Past Weeks' High & Low Weather Summary

 TemperatureHumidityPressure
High80 °F (Dec 9, 2:53 PM)100% (Dec 12, 12:53 AM)30.25 "Hg (Dec 12, 12:53 AM)
Low43 °F (Dec 19, 4:53 AM)22% (Dec 9, 2:53 PM)29.88 "Hg (Dec 11, 3:53 PM)
Average58 °F63%30.05 "Hg
* Reported Dec 6 5:53 PM — Dec 21 5:53 PM, Mexicali, Weather by CustomWeather, © 2014

Note: Actual official high and low records may vary slightly from our data, if they occured in-between our weather recording intervals... More about our weather records

Advertising

Mexicali weather history for previous 24 hours

 ConditionsComfort  
Time TempWeatherWind HumidityBarometerVisibility
5:53 PM
Dec 21
59 °FClear.3 mph64%30.04 "Hg10 mi
4:53 PM65 °FClear.No wind54%30.03 "Hg10 mi
3:53 PM67 °FSunny.No wind49%30.04 "Hg10 mi
2:53 PM67 °FSunny.6 mph51%30.03 "Hg10 mi
1:53 PM67 °FSunny.6 mph49%30.04 "Hg10 mi
12:53 PM68 °FSunny.5 mph47%30.05 "Hg10 mi
11:53 AM67 °FSunny.5 mph49%30.08 "Hg10 mi
10:53 AM63 °FSunny.No wind54%30.11 "Hg10 mi
9:53 AM60 °FSunny.6 mph60%30.14 "Hg10 mi
8:53 AM55 °FSunny.No wind74%30.15 "Hg10 mi
7:53 AM49 °FSunny.No wind80%30.12 "Hg10 mi
6:53 AM46 °FSunny.No wind83%30.12 "Hg10 mi
5:53 AM45 °FClear.3 mph82%30.11 "Hg10 mi
4:53 AM46 °FClear.No wind77%30.10 "Hg10 mi
3:53 AM45 °FClear.No wind82%30.11 "Hg10 mi
2:53 AM46 °FClear.5 mph79%30.11 "Hg10 mi
1:53 AM47 °FClear.7 mph80%30.11 "Hg10 mi
12:53 AM49 °FClear.No wind74%30.11 "Hg10 mi
11:53 PM
Dec 20
49 °FClear.7 mph80%30.11 "Hg10 mi
10:53 PM49 °FClear.No wind77%30.11 "Hg10 mi
9:53 PM48 °FClear.5 mph83%30.13 "Hg10 mi
8:53 PM50 °FClear.3 mph77%30.11 "Hg10 mi
7:53 PM54 °FClear.No wind69%30.12 "Hg10 mi
6:53 PM58 °FClear.No wind58%30.10 "Hg10 mi
Weather by CustomWeather, © 2014

See weather overviewHow to use our weather pages